Newport, AR

12:09 PM CDT on July 21, 2017 (GMT -0500)
Newport

Weather History for KM19 - May, 2013

Change the Weather History Date:

Tuesday, May 7, 2013

  Actual Average (KBVX) Record (KBVX)
Temperature  
Mean Temperature 63 °F -  
Max Temperature 74 °F 79 °F 92 °F (1955)
Min Temperature 52 °F 55 °F 35 °F (1958)
Degree Days  
Heating Degree Days 2    
Growing Degree Days 13 (Base 50)    
Moisture  
Dew Point 57 °F    
Average Humidity 76    
Maximum Humidity 97    
Minimum Humidity 52    
Precipitation  
Precipitation 0.00 in - - ()
Sea Level Pressure  
Sea Level Pressure 30.01 in    
Wind  
Wind Speed 6 mph (North)    
Max Wind Speed 10 mph    
Max Gust Speed 16 mph    
Visibility 10 miles    
Events      
Averages and records for this station are not official NWS values.
T = Trace of Precipitation, MM = Missing Value Source: NWS Daily Summary

Daily Weather History Graph

Daily Weather History Graph

Search for Another Location

Airport or City:

Trip Planner

Search our weather history database for the weather conditions in past years. The results will help you decide how hot, cold, wet, or windy it might be!

Date:

Astronomy

May. 07, 2013 Rise Set
Actual Time 6:06 AM CDT 7:56 PM CDT
Civil Twilight 5:38 AM CDT 8:24 PM CDT
Nautical Twilight 5:05 AM CDT 8:58 PM CDT
Astronomical Twilight 4:29 AM CDT 9:34 PM CDT
Moon 4:36 AM CDT (5/7) 5:59 PM CDT (5/7)
Length of Visible Light 14h 45m
Length of Day
13h 50m
Waning Crescent, 5% of the Moon is Illuminated
May 7
Waning Crescent
May 9
New
May 17
First Quarter
May 24
Full
May 31
Last Quarter

Hourly Weather History & Observations

Time (CDT) Temp. Dew Point Humidity Pressure Visibility Wind Dir Wind Speed Gust Speed Precip Events Conditions
12:56 AM 59.0 °F 54.9 °F 86% 29.99 in 10.0 mi NW 5.8 mph - N/A   Overcast
1:56 AM 57.9 °F 54.9 °F 90% 29.99 in 10.0 mi NNW 6.9 mph - N/A   Overcast
2:56 AM 54.9 °F 52.9 °F 93% 29.98 in 10.0 mi NNW 6.9 mph - N/A   Clear
3:56 AM 54.9 °F 52.0 °F 90% 29.98 in 10.0 mi WNW 6.9 mph - N/A   Clear
4:56 AM 54.0 °F 52.9 °F 96% 29.99 in 10.0 mi WNW 4.6 mph - N/A   Clear
5:56 AM 52.9 °F 52.0 °F 97% 30.00 in 10.0 mi NW 4.6 mph - N/A   Clear
6:56 AM 54.9 °F 54.0 °F 97% 30.01 in 10.0 mi NW 4.6 mph - N/A   Clear
7:56 AM 59.9 °F 55.9 °F 87% 30.03 in 10.0 mi NNW 6.9 mph - N/A   Clear
8:56 AM 63.9 °F 56.8 °F 78% 30.05 in 10.0 mi WNW 8.1 mph - N/A   Clear
9:56 AM 66.9 °F 56.8 °F 70% 30.04 in 10.0 mi NNE 5.8 mph - N/A   Clear
10:56 AM 68.9 °F 56.8 °F 65% 30.05 in 10.0 mi North 8.1 mph - N/A   Clear
11:56 AM 70.0 °F 57.9 °F 65% 30.05 in 10.0 mi NNE 10.4 mph 16.1 mph N/A   Partly Cloudy
12:56 PM 72.0 °F 59.0 °F 64% 30.04 in 10.0 mi NNE 8.1 mph - N/A   Scattered Clouds
2:56 PM 73.9 °F 57.9 °F 57% 30.03 in 10.0 mi NNE 9.2 mph - N/A   Clear
3:56 PM 74.8 °F 57.9 °F 55% 30.01 in 10.0 mi NE 9.2 mph - N/A   Clear
4:56 PM 74.8 °F 55.9 °F 52% 30.00 in 10.0 mi North 4.6 mph - N/A   Clear
5:56 PM 74.8 °F 56.8 °F 53% 30.00 in 10.0 mi NE 3.5 mph - N/A   Clear
6:56 PM 73.9 °F 57.9 °F 57% 30.00 in 10.0 mi ENE 4.6 mph - N/A   Clear
7:56 PM 70.9 °F 61.0 °F 71% 30.00 in 10.0 mi Calm Calm - N/A   Clear
8:56 PM 68.0 °F 59.0 °F 73% 30.01 in 10.0 mi ESE 4.6 mph - N/A   Clear
9:56 PM 65.8 °F 59.9 °F 81% 30.03 in 10.0 mi Calm Calm - N/A   Clear
10:56 PM 63.9 °F 59.0 °F 84% 30.03 in 10.0 mi Calm Calm - N/A   Clear
11:56 PM 63.0 °F 57.9 °F 84% 30.03 in 10.0 mi SW 4.6 mph - N/A   Scattered Clouds